When you browse on this site, cookies collect data to enhance your experience and personalize the content and advertising you see.
Visit our Privacy Policy to learn more. By continuing to use the site, you agree to this use of cookies and data.
  • In United Kingdom
  • List of Countries
  • For 7 days
  • Water Temperature
  • Satellite Maps
  • Weather Map
  • Weather Widgets
  • user-avatar
    Login

    Hourly Weather Cayenne

    Today, 19 July, Friday

    Time Temperature Precipitation Wind Pressure Humidity
    00:00 +25°C° 0.3 mm 1 mps 760 mmHg 92%
    01:00 +25°C° 0.3 mm 1 mps 759 mmHg 93%
    02:00 +25°C° 0.3 mm 1 mps 759 mmHg 95%
    03:00 +25°C° 0 mm 1 mps 758 mmHg 98%
    04:00 +25°C° 0.3 mm 1 mps 758 mmHg 98%
    05:00 +25°C° 0.3 mm 1 mps 758 mmHg 97%
    06:00 +23°C° 0.3 mm 0 mps 759 mmHg 97%
    07:00 +26°C° 0.2 mm 1 mps 759 mmHg 91%
    08:00 +28°C° 0.2 mm 1 mps 759 mmHg 84%
    09:00 +30°C° 0 mm 1 mps 759 mmHg 77%
    10:00 +31°C° 0.6 mm 1 mps 759 mmHg 73%
    11:00 +32°C° 0.6 mm 2 mps 759 mmHg 68%
    12:00 +32°C° 0.6 mm 2 mps 759 mmHg 64%
    13:00 +32°C° 0.6 mm 2 mps 758 mmHg 70%
    14:00 +31°C° 0.6 mm 3 mps 758 mmHg 75%
    15:00 +31°C° 0.6 mm 3 mps 757 mmHg 81%
    16:00 +30°C° 0.2 mm 3 mps 757 mmHg 82%
    17:00 +29°C° 0.2 mm 3 mps 757 mmHg 82%
    18:00 +29°C° 0.2 mm 3 mps 757 mmHg 83%
    19:00 +28°C° 0.3 mm 3 mps 758 mmHg 87%
    20:00 +27°C° 0.3 mm 3 mps 758 mmHg 90%
    21:00 +26°C° 0.3 mm 2 mps 759 mmHg 93%
    22:00 +26°C° 0.8 mm 3 mps 759 mmHg 94%
    23:00 +25°C° 0.8 mm 3 mps 759 mmHg 95%

    Tomorrow, 20 July, Saturday

    Time Temperature Precipitation Wind Pressure Humidity
    00:00 +25°C° 0.8 mm 3 mps 759 mmHg 96%
    01:00 +25°C° 0.3 mm 3 mps 759 mmHg 96%
    02:00 +25°C° 0.3 mm 2 mps 758 mmHg 97%
    03:00 +24°C° 0.3 mm 2 mps 758 mmHg 97%
    04:00 +24°C° 0 mm 2 mps 758 mmHg 97%
    05:00 +24°C° 0 mm 2 mps 758 mmHg 97%
    06:00 +24°C° 0 mm 2 mps 758 mmHg 97%
    07:00 +25°C° 0.7 mm 2 mps 758 mmHg 95%
    08:00 +26°C° 0.7 mm 2 mps 759 mmHg 92%
    09:00 +28°C° 0.7 mm 3 mps 759 mmHg 89%
    10:00 +29°C° 0.9 mm 3 mps 759 mmHg 86%
    11:00 +29°C° 0.9 mm 4 mps 759 mmHg 82%
    12:00 +30°C° 0.9 mm 4 mps 759 mmHg 78%
    13:00 +32°C° 0.4 mm 5 mps 758 mmHg 76%
    14:00 +32°C° 0.4 mm 5 mps 758 mmHg 74%
    15:00 +32°C° 0.4 mm 5 mps 757 mmHg 72%
    16:00 +30°C° 0.2 mm 5 mps 757 mmHg 74%
    17:00 +29°C° 0.2 mm 5 mps 757 mmHg 77%
    18:00 +29°C° 0.2 mm 5 mps 757 mmHg 80%
    19:00 +28°C° 0 mm 5 mps 757 mmHg 81%
    20:00 +27°C° 0 mm 5 mps 758 mmHg 83%
    21:00 +26°C° 0 mm 5 mps 758 mmHg 85%
    22:00 +26°C° 0 mm 4 mps 759 mmHg 87%
    23:00 +25°C° 0 mm 4 mps 759 mmHg 88%

    Day after tomorrow, 21 July, Sunday

    Time Temperature Precipitation Wind Pressure Humidity
    00:00 +25°C° 0 mm 4 mps 759 mmHg 90%
    01:00 +23°C° 0.2 mm 4 mps 758 mmHg 91%
    02:00 +23°C° 0.2 mm 4 mps 758 mmHg 92%
    03:00 +23°C° 0.2 mm 4 mps 758 mmHg 93%
    04:00 +23°C° 0.4 mm 4 mps 758 mmHg 94%
    05:00 +23°C° 0.4 mm 4 mps 758 mmHg 94%
    06:00 +23°C° 0.4 mm 4 mps 758 mmHg 95%
    07:00 +26°C° 0.3 mm 4 mps 758 mmHg 89%
    08:00 +27°C° 0.3 mm 4 mps 758 mmHg 83%
    09:00 +29°C° 0.3 mm 5 mps 759 mmHg 77%
    10:00 +30°C° 0.2 mm 5 mps 759 mmHg 73%
    11:00 +32°C° 0.2 mm 5 mps 759 mmHg 68%
    12:00 +33°C° 0.2 mm 5 mps 759 mmHg 64%
    13:00 +32°C° 0.2 mm 5 mps 758 mmHg 66%
    14:00 +32°C° 0.2 mm 5 mps 758 mmHg 68%
    15:00 +32°C° 0.2 mm 5 mps 757 mmHg 69%
    16:00 +30°C° 0.4 mm 4 mps 757 mmHg 76%
    17:00 +29°C° 0.4 mm 4 mps 757 mmHg 83%
    18:00 +28°C° 0.4 mm 4 mps 757 mmHg 89%
    19:00 +27°C° 0.5 mm 4 mps 757 mmHg 92%
    20:00 +26°C° 0.5 mm 3 mps 758 mmHg 94%
    21:00 +25°C° 0.5 mm 3 mps 758 mmHg 97%
    22:00 +25°C° 0.7 mm 3 mps 758 mmHg 97%
    23:00 +25°C° 0.7 mm 3 mps 759 mmHg 97%

    22 July, Monday

    Time Temperature Precipitation Wind Pressure Humidity
    00:00 +25°C° 0.7 mm 3 mps 759 mmHg 97%
    01:00 +25°C° 0.8 mm 3 mps 758 mmHg 97%
    02:00 +25°C° 0.8 mm 3 mps 758 mmHg 97%
    03:00 +25°C° 0.8 mm 3 mps 757 mmHg 97%
    04:00 +25°C° 0.7 mm 3 mps 758 mmHg 97%
    05:00 +24°C° 0.7 mm 2 mps 758 mmHg 97%
    06:00 +24°C° 0.7 mm 2 mps 758 mmHg 97%
    07:00 +25°C° 0.7 mm 2 mps 758 mmHg 96%
    08:00 +26°C° 0.7 mm 2 mps 758 mmHg 94%
    09:00 +28°C° 0.7 mm 2 mps 759 mmHg 93%
    10:00 +28°C° 0.8 mm 3 mps 759 mmHg 92%
    11:00 +28°C° 0.8 mm 3 mps 759 mmHg 91%
    12:00 +29°C° 0.8 mm 3 mps 759 mmHg 90%
    13:00 +29°C° 0.9 mm 3 mps 758 mmHg 89%
    14:00 +29°C° 0.9 mm 3 mps 758 mmHg 89%
    15:00 +29°C° 0.9 mm 3 mps 757 mmHg 88%
    16:00 +28°C° 1 mm 2 mps 757 mmHg 90%
    17:00 +27°C° 1 mm 2 mps 757 mmHg 92%
    18:00 +27°C° 1 mm 2 mps 757 mmHg 94%
    19:00 +26°C° 0.9 mm 2 mps 757 mmHg 94%
    20:00 +26°C° 0.9 mm 3 mps 758 mmHg 95%
    21:00 +25°C° 0.9 mm 3 mps 758 mmHg 95%
    22:00 +25°C° 0 mm 3 mps 758 mmHg 95%
    23:00 +25°C° 0 mm 3 mps 759 mmHg 95%

    23 July, Tuesday

    Time Temperature Precipitation Wind Pressure Humidity
    00:00 +24°C° 0 mm 2 mps 759 mmHg 96%
    01:00 +24°C° 0 mm 2 mps 758 mmHg 96%
    02:00 +24°C° 0 mm 2 mps 758 mmHg 96%
    03:00 +24°C° 0 mm 2 mps 757 mmHg 96%
    04:00 +24°C° 0 mm 2 mps 757 mmHg 96%
    05:00 +23°C° 0 mm 2 mps 757 mmHg 96%
    06:00 +23°C° 0 mm 2 mps 757 mmHg 96%
    07:00 +25°C° 0 mm 2 mps 758 mmHg 92%
    08:00 +27°C° 0 mm 2 mps 758 mmHg 88%
    09:00 +28°C° 0 mm 2 mps 759 mmHg 83%
    10:00 +29°C° 0.5 mm 2 mps 759 mmHg 84%
    11:00 +29°C° 0.5 mm 2 mps 759 mmHg 85%
    12:00 +29°C° 0.5 mm 3 mps 759 mmHg 86%
    13:00 +29°C° 0.7 mm 3 mps 758 mmHg 87%
    14:00 +29°C° 0.7 mm 3 mps 757 mmHg 88%
    15:00 +29°C° 0.7 mm 3 mps 757 mmHg 88%
    16:00 +29°C° 0.3 mm 3 mps 757 mmHg 89%
    17:00 +28°C° 0.3 mm 3 mps 757 mmHg 89%
    18:00 +27°C° 0.3 mm 3 mps 756 mmHg 89%
    19:00 +27°C° 0 mm 2 mps 757 mmHg 90%
    20:00 +26°C° 0 mm 2 mps 757 mmHg 92%
    21:00 +25°C° 0 mm 2 mps 758 mmHg 93%
    22:00 +25°C° 0 mm 2 mps 758 mmHg 93%
    23:00 +25°C° 0 mm 2 mps 758 mmHg 94%

    24 July, Wednesday

    Time Temperature Precipitation Wind Pressure Humidity
    00:00 +25°C° 0 mm 2 mps 758 mmHg 94%
    01:00 +25°C° 0 mm 2 mps 758 mmHg 95%
    02:00 +24°C° 0 mm 2 mps 758 mmHg 95%
    03:00 +24°C° 0 mm 2 mps 757 mmHg 96%
    04:00 +24°C° 0.2 mm 2 mps 757 mmHg 96%
    05:00 +24°C° 0.2 mm 2 mps 757 mmHg 97%
    06:00 +23°C° 0.2 mm 2 mps 757 mmHg 97%
    07:00 +25°C° 0.6 mm 2 mps 758 mmHg 92%
    08:00 +27°C° 0.6 mm 1 mps 758 mmHg 87%
    09:00 +28°C° 0.6 mm 1 mps 758 mmHg 82%
    10:00 +29°C° 0.3 mm 2 mps 758 mmHg 79%
    11:00 +30°C° 0.3 mm 3 mps 758 mmHg 76%
    12:00 +30°C° 0.3 mm 3 mps 758 mmHg 73%
    13:00 +31°C° 0.3 mm 3 mps 758 mmHg 73%
    14:00 +31°C° 0.3 mm 3 mps 757 mmHg 73%
    15:00 +31°C° 0.3 mm 3 mps 757 mmHg 73%
    16:00 +30°C° 0.2 mm 3 mps 757 mmHg 77%
    17:00 +29°C° 0.2 mm 3 mps 756 mmHg 80%
    18:00 +28°C° 0.2 mm 3 mps 756 mmHg 83%
    19:00 +27°C° 0.1 mm 3 mps 757 mmHg 86%
    20:00 +26°C° 0.1 mm 3 mps 757 mmHg 88%
    21:00 +26°C° 0.1 mm 3 mps 758 mmHg 91%
    22:00 +25°C° 0.1 mm 3 mps 758 mmHg 92%
    23:00 +25°C° 0.1 mm 3 mps 758 mmHg 93%
    Show more